Regional Weather Roundup
Issued by NWS Sioux Falls, SD

Home | Current Version | Previous Version | Text Only | Print | Product List | Glossary On
Versions: 1 2 3 4 5 6 7 8 9 10 11 12 13 14 15 16 17 18 19 20 21 22 23 24 25 26 27 28 29 30 31 32 33 34 35 36 37 38 39 40 41 42 43 44 45 46 47 48 49 50
000
ASUS43 KFSD 250902
RWRFSD

WEATHER ROUNDUP FOR SE SOUTH DAKOTA/SW MINNESOTA/NW IOWA
NATIONAL WEATHER SERVICE SIOUX FALLS SD
400 AM CDT SAT OCT 25 2014

NOTE: "FAIR" INDICATES FEW OR NO CLOUDS BELOW 12,000 FEET WITH NO
SIGNIFICANT WEATHER AND OR OBSTRUCTIONS TO VISIBILITY.


SDZ038>040-050-052>070-251000-
SOUTHEAST SOUTH DAKOTA

CITY           SKY/WX    TMP DP  RH WIND       PRES   REMARKS
CHAMBERLAIN    CLEAR     41  33  74 W3        30.11S
HURON          CLOUDY    48  39  71 N6        30.08S
MADISON        FAIR      52  37  58 N5        30.07R
MITCHELL       PTCLDY    49  40  71 W6        30.09R
SIOUX FALLS    PTCLDY    46  41  82 NW3       30.06R
WINNER         FAIR      49  35  58 SW3       30.12S
YANKTON        CLEAR     46  39  76 NW9       30.08R
$$

MNZ071-072-080-081-089-090-097-098-251000-
SOUTHWEST MINNESOTA

CITY           SKY/WX    TMP DP  RH WIND       PRES   REMARKS
FAIRMONT       MOCLDY    57   1  10 NW9       30.01R
JACKSON        MOCLDY    55  36  47 NW7       30.03S
LUVERNE        PTCLDY    50  39  66 NW3       30.05S
MARSHALL       CLOUDY    55  36  47 NW12      30.03S
MONTEVIDEO     MOCLDY    55  37  50 N9        30.04R
PIPESTONE      MOCLDY    55  39  54 N6        30.06R
REDWOOD FALLS  CLOUDY    57  36  45 NW10      30.01S
TRACY          CLOUDY    58  38  46 NW9       30.04S
WINDOM         CLOUDY    57  36  44 NW13      30.02F
WORTHINGTON    MOCLDY    52  39  62 NW6       30.05F
$$

IAZ001>003-012>014-020>022-031-032-NEZ013-014-SDZ071-251000-
NORTHWEST IOWA

CITY           SKY/WX    TMP DP  RH WIND       PRES   REMARKS
CHEROKEE       CLEAR     44  44 100 NE5       30.04S
DENISON        CLEAR     45  45 100 CALM      30.01S FOG
ESTHERVILLE    MOCLDY    53  40  61 NW8       30.03R
LE MARS        CLEAR     45  43  93 NE5       30.06R
ORANGE CITY    CLEAR     55  41  58 NE3       30.05R
SHELDON        PTCLDY    48  41  76 N8        30.04S
SIOUX CITY     CLEAR     44  41  89 W3        30.04R
SPENCER        MOCLDY    46  40  79 N6        30.04S
STORM LAKE     CLEAR     54  41  62 N9        30.04S
$$

ABBREVIATIONS USED IN REMARKS
   TC - TEMPERATURE IN CELSIUS
  WCI - WIND CHILL INDEX
   HX - HEAT INDEX
  VSB - VISIBILITY




USA.gov is the U.S. government's official web portal to all federal, state and local government web resources and services.